Lid_Strength_Index
10 9 9 10 9 9 10 10 10 11 12 11 9 8 8 6 6 6 6 5 5 5 4 3 3 2 2 2 1 1 1 1 1 1 0 2 2 2 2 2 4 3 2 3
12 10 10 12 10 10 10 11 11 11 12 8 7 7 7 7 6 6 5 5 5 4 4 3 3 3 2 2 2 1 2 2 1 1 0 2 2 3 2 3 2 2 4 4
13 11 10 13 12 11 11 10 10 13 10 8 9 8 7 7 6 6 6 5 5 4 4 3 3 2 2 2 1 2 2 2 2 1 1 2 2 4 5 4 3 4 5 5
13 11 15 12 9 9 10 10 9 9 9 8 8 7 6 5 6 6 5 5 4 4 3 3 2 3 3 2 1 2 2 2 1 1 1 2 3 3 3 3 4 5 5 5
14 13 13 12 10 10 11 12 8 9 8 8 6 6 7 5 4 4 4 4 3 3 3 3 3 3 3 3 2 2 2 3 2 2 2 3 2 3 3 4 5 5 5 4
12 14 15 11 9 7 7 13 8 8 8 8 7 10 8 5 4 4 3 3 3 3 2 3 2 1 3 2 3 3 2 2 2 2 1 2 2 3 4 5 6 6 4 2
12 13 12 9 7 6 13 11 7 6 6 7 8 7 5 4 4 3 3 3 2 2 3 3 2 2 3 3 3 2 3 3 3 2 2 1 2 3 5 5 5 3 3 2
12 13 14 7 8 10 8 6 6 6 6 6 6 5 4 4 4 4 4 3 3 3 3 2 1 2 3 3 2 2 2 3 2 2 2 2 2 4 4 3 3 3 3 3
11 11 8 6 7 6 5 6 6 5 5 5 5 5 4 4 4 4 3 3 2 2 2 2 2 2 3 2 2 2 3 3 3 3 3 2 0 2 3 2 3 3 4 3
10 9 8 7 5 5 5 5 4 4 4 4 5 4 5 4 4 3 3 3 2 2 3 3 1 1 1 1 1 2 2 2 2 1 2 1 1 1 2 2 2 3 3 3
10 8 7 6 5 5 5 4 4 4 4 4 4 4 4 4 4 3 3 2 2 2 2 2 1 1 1 1 1 1 2 1 2 2 1 1 1 1 1 -0 2 1 2 2
10 7 7 7 5 4 5 4 4 4 4 3 3 4 3 3 3 3 3 2 2 2 2 2 2 1 1 0 0 1 1 1 3 3 3 1 1 2 8 7 7 8 7 4
7 5 5 5 4 3 4 4 3 3 3 4 3 3 3 3 2 3 2 2 2 2 2 1 1 1 0 -0 -0 1 1 2 3 3 3 2 2 1 2 5 8 8 8 8
4 5 6 5 5 3 3 3 3 3 3 3 3 2 2 3 2 2 3 2 1 1 2 1 1 1 0 -0 0 1 1 4 2 2 2 2 3 4 3 2 2 1 6 6
4 4 4 4 3 4 3 3 4 4 4 3 3 3 3 3 3 3 2 1 1 1 1 1 1 1 0 -0 0 0 0 1 0 0 0 1 2 2 1 1 2 2 2 4
4 4 4 5 4 4 4 4 4 4 4 3 3 3 2 2 2 2 1 1 2 2 1 1 1 1 -0 -0 0 0 1 5 3 2 1 1 1 2 2 2 2 3 3 4
6 6 5 5 5 4 4 3 3 3 3 3 3 2 2 2 2 2 2 1 1 1 1 2 1 0 -0 0 0 2 1 1 4 0 1 1 2 2 3 3 3 4 4 7
3 3 3 4 4 4 4 3 3 3 3 2 2 2 2 3 3 2 2 1 1 1 2 2 2 1 0 0 -0 0 0 0 1 1 2 2 3 3 4 4 4 5 5 7
3 3 3 3 3 3 3 3 3 2 2 2 2 3 2 2 2 2 1 2 2 3 2 3 6 2 1 2 0 0 1 1 2 2 2 5 3 4 4 5 6 6 6 6
3 3 3 3 2 3 3 2 2 2 2 2 2 2 3 2 2 2 1 2 2 2 2 3 2 1 1 2 5 1 2 2 2 2 3 3 4 4 5 8 6 6 6 6
4 3 3 3 3 3 2 2 2 3 2 2 2 3 2 2 1 2 2 4 2 2 2 6 2 0 1 3 2 1 2 2 2 2 3 3 4 4 5 5 6 6 6 6
3 3 3 3 3 3 2 2 2 2 2 2 2 2 2 2 2 2 2 3 2 8 3 2 2 7 2 6 0 1 1 1 1 2 3 3 3 4 4 5 5 5 5 5
3 3 3 3 3 3 2 2 2 2 2 2 2 2 2 2 2 3 4 2 2 5 2 3 9 11 11 1 1 1 1 1 1 2 2 3 3 4 4 4 5 5 5 5
3 3 3 3 3 3 4 3 2 2 2 2 1 1 1 2 3 2 2 6 8 7 4 5 7 11 11 2 2 2 1 1 2 2 2 8 3 3 4 4 5 4 4 6
4 5 4 4 3 3 3 2 3 3 3 2 2 2 1 1 2 1 1 2 9 6 3 11 11 11 3 2 2 2 2 2 2 2 3 3 4 4 4 4 4 4 3 4
6 5 3 2 3 3 3 3 4 3 3 3 3 2 2 2 2 2 2 5 3 6 3 4 3 4 3 3 2 3 2 2 3 3 3 3 4 4 4 4 4 4 4 3
4 6 3 3 3 3 3 3 3 3 3 3 3 2 2 2 2 3 6 3 3 3 3 3 3 4 2 3 3 2 2 2 5 2 3 3 3 4 4 3 3 3 3 3